owner,sensor,date,latitude,longitude,vertical_datum,wind_speed,wind_to_direction,wind_speed_of_gust,qcFlag 
TABS,ioos:station:wmo:42044:1,2012-04-01T00:00:00Z,26.1914,-97.0507,0.0,4.810530116,144.9887572,5.96,'11111222,11111222,11111222' 
TABS,ioos:station:wmo:42044:1,2012-04-01T00:30:00Z,26.1914,-97.0507,0.0,5.240467536,150.2553987,6.5,'11111222,11111222,11111222' 
TABS,ioos:station:wmo:42044:1,2012-04-01T01:00:00Z,26.1914,-97.0507,0.0,4.904079934,147.152744,6.16,'11111222,11111222,11111222' 
TABS,ioos:station:wmo:42044:1,2012-04-01T01:30:00Z,26.1914,-97.0507,0.0,4.341912021,139.6709591,5.36,'11111222,11111222,11111222' 
TABS,ioos:station:wmo:42044:1,2012-04-01T02:00:00Z,26.1914,-97.0507,0.0,3.418552325,132.5107686,4.16,'11111222,11111222,11111222' 
TABS,ioos:station:wmo:42044:1,2012-04-01T02:30:00Z,26.1914,-97.0507,0.0,3.5890528,129.2335747,4.41,'11111222,11111222,11111222' 
TABS,ioos:station:wmo:42044:1,2012-04-01T03:00:00Z,26.1914,-97.0507,0.0,3.316217725,142.4738432,4.17,'11111222,11111222,11111222' 
TABS,ioos:station:wmo:42044:1,2012-04-01T03:30:00Z,26.1914,-97.0507,0.0,3.809383152,132.0210741,4.8,'11111222,11111222,11111222' 
TABS,ioos:station:wmo:42044:1,2012-04-01T04:00:00Z,26.1914,-97.0507,0.0,5.22659545,133.8375056,6.18,'11111222,11111222,11111222' 
TABS,ioos:station:wmo:42044:1,2012-04-01T04:30:00Z,26.1914,-97.0507,0.0,5.173016528,137.272139,6.36,'11111222,11111222,11111222' 
TABS,ioos:station:wmo:42044:1,2012-04-01T05:00:00Z,26.1914,-97.0507,0.0,4.226227632,116.2622612,5.12,'11111222,11111222,11111222' 
TABS,ioos:station:wmo:42044:1,2012-04-01T05:30:00Z,26.1914,-97.0507,0.0,4.269074841,124.6954933,5.26,'11111222,11111222,11111222' 
TABS,ioos:station:wmo:42044:1,2012-04-01T06:00:00Z,26.1914,-97.0507,0.0,4.53841382,141.2616274,5.44,'11111222,11111222,11111222' 
TABS,ioos:station:wmo:42044:1,2012-04-01T06:30:00Z,26.1914,-97.0507,0.0,5.126499781,150.6851427,6.18,'11111222,11111222,11111222' 
TABS,ioos:station:wmo:42044:1,2012-04-01T07:00:00Z,26.1914,-97.0507,0.0,5.826190865,156.4271982,7.23,'11111222,11111222,11111222' 
TABS,ioos:station:wmo:42044:1,2012-04-01T07:30:00Z,26.1914,-97.0507,0.0,5.529412265,160.1233847,6.99,'11111222,11111222,11111222' 
TABS,ioos:station:wmo:42044:1,2012-04-01T08:00:00Z,26.1914,-97.0507,0.0,5.581979935,150.955644,7.45,'11111222,11111222,11111222' 
TABS,ioos:station:wmo:42044:1,2012-04-01T08:30:00Z,26.1914,-97.0507,0.0,5.026778292,158.2835148,6.47,'11111222,11111222,11111222' 
TABS,ioos:station:wmo:42044:1,2012-04-01T09:00:00Z,26.1914,-97.0507,0.0,5.573096087,157.5306558,7.03,'11111222,11111222,11111222' 
TABS,ioos:station:wmo:42044:1,2012-04-01T09:30:00Z,26.1914,-97.0507,0.0,6.075606966,159.4773258,7.55,'11111222,11111222,11111222' 
TABS,ioos:station:wmo:42044:1,2012-04-01T10:00:00Z,26.1914,-97.0507,0.0,6.210442818,155.2509018,7.48,'11111222,11111222,11111222' 
TABS,ioos:station:wmo:42044:1,2012-04-01T10:30:00Z,26.1914,-97.0507,0.0,5.486055049,146.5998838,7.13,'11111222,11111222,11111222' 
TABS,ioos:station:wmo:42044:1,2012-04-01T11:00:00Z,26.1914,-97.0507,0.0,5.11658089,138.8038474,6.21,'11111222,11111222,11111222' 
TABS,ioos:station:wmo:42044:1,2012-04-01T11:30:00Z,26.1914,-97.0507,0.0,4.609642069,124.0351446,5.67,'11111222,11111222,11111222' 
TABS,ioos:station:wmo:42044:1,2012-04-01T12:00:00Z,26.1914,-97.0507,0.0,5.293203189,130.2493977,6.24,'11111222,11111222,11111222' 
TABS,ioos:station:wmo:42044:1,2012-04-01T12:30:00Z,26.1914,-97.0507,0.0,5.866012274,137.1418571,7.28,'11111222,11111222,11111222' 
TABS,ioos:station:wmo:42044:1,2012-04-01T13:00:00Z,26.1914,-97.0507,0.0,4.562422602,146.1709013,5.65,'11111222,11111222,11111222' 
TABS,ioos:station:wmo:42044:1,2012-04-01T13:30:00Z,26.1914,-97.0507,0.0,4.325598225,139.3128087,5.27,'11111222,11111222,11111222' 
TABS,ioos:station:wmo:42044:1,2012-04-01T14:00:00Z,26.1914,-97.0507,0.0,4.086330873,145.0657056,5.25,'11111222,11111222,11111222' 
TABS,ioos:station:wmo:42044:1,2012-04-01T14:30:00Z,26.1914,-97.0507,0.0,4.960040322,143.3614286,6.05,'11111222,11111222,11111222' 
TABS,ioos:station:wmo:42044:1,2012-04-01T15:00:00Z,26.1914,-97.0507,0.0,4.266450515,126.0375835,5.3,'11111222,11111222,11111222' 
TABS,ioos:station:wmo:42044:1,2012-04-01T15:30:00Z,26.1914,-97.0507,0.0,5.345802091,134.697167,6.23,'11111222,11111222,11111222' 
TABS,ioos:station:wmo:42044:1,2012-04-01T16:00:00Z,26.1914,-97.0507,0.0,5.982140085,135.1357661,7.28,'11111222,11111222,11111222' 
TABS,ioos:station:wmo:42044:1,2012-04-01T16:30:00Z,26.1914,-97.0507,0.0,5.510362964,133.4561344,6.57,'11111222,11111222,11111222' 
TABS,ioos:station:wmo:42044:1,2012-04-01T17:00:00Z,26.1914,-97.0507,0.0,6.126744649,133.1484457,8.23,'11111222,11111222,11111222' 
TABS,ioos:station:wmo:42044:1,2012-04-01T17:30:00Z,26.1914,-97.0507,0.0,6.90513577,130.1246179,8.44,'11111222,11111222,11111222' 
TABS,ioos:station:wmo:42044:1,2012-04-01T18:00:00Z,26.1914,-97.0507,0.0,6.835912521,129.95614,8.41,'11111222,11111222,11111222' 
TABS,ioos:station:wmo:42044:1,2012-04-01T18:30:00Z,26.1914,-97.0507,0.0,6.246695126,131.7557359,7.94,'11111222,11111222,11111222' 
TABS,ioos:station:wmo:42044:1,2012-04-01T19:00:00Z,26.1914,-97.0507,0.0,5.92558014,132.1959605,7.53,'11111222,11111222,11111222' 
TABS,ioos:station:wmo:42044:1,2012-04-01T19:30:00Z,26.1914,-97.0507,0.0,5.614427843,135.0003157,7.02,'11111222,11111222,11111222' 
TABS,ioos:station:wmo:42044:1,2012-04-01T20:00:00Z,26.1914,-97.0507,0.0,5.254379126,134.1521245,6.72,'11111222,11111222,11111222' 
TABS,ioos:station:wmo:42044:1,2012-04-01T20:30:00Z,26.1914,-97.0507,0.0,4.673510458,123.2143737,5.8,'11111222,11111222,11111222' 
TABS,ioos:station:wmo:42044:1,2012-04-01T21:00:00Z,26.1914,-97.0507,0.0,4.666347608,125.0527128,5.73,'11111222,11111222,11111222' 
TABS,ioos:station:wmo:42044:1,2012-04-01T21:30:00Z,26.1914,-97.0507,0.0,5.274438359,126.1315353,6.46,'11111222,11111222,11111222' 
TABS,ioos:station:wmo:42044:1,2012-04-01T22:00:00Z,26.1914,-97.0507,0.0,6.100573744,132.6088478,7.98,'11111222,11111222,11111222' 
TABS,ioos:station:wmo:42044:1,2012-04-01T22:30:00Z,26.1914,-97.0507,0.0,5.714280357,134.0076687,7.07,'11111222,11111222,11111222' 
TABS,ioos:station:wmo:42044:1,2012-04-01T23:00:00Z,26.1914,-97.0507,0.0,5.47284204,127.875316,6.73,'11111222,11111222,11111222' 
TABS,ioos:station:wmo:42044:1,2012-04-01T23:30:00Z,26.1914,-97.0507,0.0,5.724351492,131.4593083,7.09,'11111222,11111222,11111222' 
TABS,ioos:station:wmo:42044:1,2012-04-02T00:00:00Z,26.1914,-97.0507,0.0,5.962717501,128.6001119,7.33,'11111222,11111222,11111222' 
TABS,ioos:station:wmo:42044:1,2012-04-02T00:30:00Z,26.1914,-97.0507,0.0,5.718644944,131.2428008,7.24,'11111222,11111222,11111222' 
TABS,ioos:station:wmo:42044:1,2012-04-02T01:00:00Z,26.1914,-97.0507,0.0,5.652910755,131.5581085,7.71,'11111222,11111222,11111222' 
TABS,ioos:station:wmo:42044:1,2012-04-02T01:30:00Z,26.1914,-97.0507,0.0,5.91936652,129.310167,7.34,'11111222,11111222,11111222' 
TABS,ioos:station:wmo:42044:1,2012-04-02T02:00:00Z,26.1914,-97.0507,0.0,6.120473838,141.5013118,7.19,'11111222,11111222,11111222' 
TABS,ioos:station:wmo:42044:1,2012-04-02T02:30:00Z,26.1914,-97.0507,0.0,5.869599646,135.8286288,7.19,'11111222,11111222,11111222' 
TABS,ioos:station:wmo:42044:1,2012-04-02T03:00:00Z,26.1914,-97.0507,0.0,5.346335193,144.8239012,6.72,'11111222,11111222,11111222' 
TABS,ioos:station:wmo:42044:1,2012-04-02T03:30:00Z,26.1914,-97.0507,0.0,5.387995917,147.8145505,6.55,'11111222,11111222,11111222' 
TABS,ioos:station:wmo:42044:1,2012-04-02T04:00:00Z,26.1914,-97.0507,0.0,6.560678319,137.4093914,8.19,'11111222,11111222,11111222' 
TABS,ioos:station:wmo:42044:1,2012-04-02T04:30:00Z,26.1914,-97.0507,0.0,7.915611158,123.5097302,9.47,'11111222,11111222,11111222' 
TABS,ioos:station:wmo:42044:1,2012-04-02T05:00:00Z,26.1914,-97.0507,0.0,8.552759789,126.1065143,10.32,'11111222,11111222,11111222' 
TABS,ioos:station:wmo:42044:1,2012-04-02T05:30:00Z,26.1914,-97.0507,0.0,8.55643033,123.3189682,10.76,'11111222,11111222,11111222' 
TABS,ioos:station:wmo:42044:1,2012-04-02T06:00:00Z,26.1914,-97.0507,0.0,7.622709492,126.0884982,9.84,'11111222,11111222,11111222' 
TABS,ioos:station:wmo:42044:1,2012-04-02T06:30:00Z,26.1914,-97.0507,0.0,5.976788435,140.0228951,7.47,'11111222,11111222,11111222' 
TABS,ioos:station:wmo:42044:1,2012-04-02T07:00:00Z,26.1914,-97.0507,0.0,5.776400263,142.455897,7.57,'11111222,11111222,11111222' 
TABS,ioos:station:wmo:42044:1,2012-04-02T07:30:00Z,26.1914,-97.0507,0.0,6.085597752,140.2670602,7.78,'11111222,11111222,11111222' 
TABS,ioos:station:wmo:42044:1,2012-04-02T08:00:00Z,26.1914,-97.0507,0.0,7.173234975,140.9413132,8.87,'11111222,11111222,11111222' 
TABS,ioos:station:wmo:42044:1,2012-04-02T08:30:00Z,26.1914,-97.0507,0.0,6.516578857,138.3594669,8.46,'11111222,11111222,11111222' 
TABS,ioos:station:wmo:42044:1,2012-04-02T09:00:00Z,26.1914,-97.0507,0.0,5.907021246,139.325366,7.7,'11111222,11111222,11111222' 
TABS,ioos:station:wmo:42044:1,2012-04-02T09:30:00Z,26.1914,-97.0507,0.0,5.76300269,139.9274141,7.55,'11111222,11111222,11111222' 
TABS,ioos:station:wmo:42044:1,2012-04-02T10:00:00Z,26.1914,-97.0507,0.0,7.462472781,143.7753509,10.33,'11111222,11111222,11111222' 
TABS,ioos:station:wmo:42044:1,2012-04-02T10:30:00Z,26.1914,-97.0507,0.0,7.081786498,140.443347,9.01,'11111222,11111222,11111222' 
TABS,ioos:station:wmo:42044:1,2012-04-02T11:00:00Z,26.1914,-97.0507,0.0,6.064791835,144.0562705,7.84,'11111222,11111222,11111222' 
TABS,ioos:station:wmo:42044:1,2012-04-02T11:30:00Z,26.1914,-97.0507,0.0,2.009975124,137.4198192,3.33,'11111222,11111222,11111222' 
TABS,ioos:station:wmo:42044:1,2012-04-02T12:00:00Z,26.1914,-97.0507,0.0,4.307261311,136.2231897,5.83,'11111222,11111222,11111222' 
TABS,ioos:station:wmo:42044:1,2012-04-02T12:30:00Z,26.1914,-97.0507,0.0,5.408289933,143.7236759,6.94,'11111222,11111222,11111222' 
TABS,ioos:station:wmo:42044:1,2012-04-02T13:00:00Z,26.1914,-97.0507,0.0,5.09684216,137.703935,6.66,'11111222,11111222,11111222' 
TABS,ioos:station:wmo:42044:1,2012-04-02T13:30:00Z,26.1914,-97.0507,0.0,6.050429737,150.3846015,7.41,'11111222,11111222,11111222' 
TABS,ioos:station:wmo:42044:1,2012-04-02T14:00:00Z,26.1914,-97.0507,0.0,6.185563838,155.7556279,8.01,'11111222,11111222,11111222' 
TABS,ioos:station:wmo:42044:1,2012-04-02T14:30:00Z,26.1914,-97.0507,0.0,4.275628609,150.7374221,5.73,'11111222,11111222,11111222' 
TABS,ioos:station:wmo:42044:1,2012-04-02T15:00:00Z,26.1914,-97.0507,0.0,2.416029801,143.4149777,3.1,'11111222,11111222,11111222' 
TABS,ioos:station:wmo:42044:1,2012-04-02T15:30:00Z,26.1914,-97.0507,0.0,3.905547337,164.860928,5.41,'11111222,11111222,11111222' 
TABS,ioos:station:wmo:42044:1,2012-04-02T16:00:00Z,26.1914,-97.0507,0.0,4.869250456,157.543324,5.96,'11111222,11111222,11111222' 
TABS,ioos:station:wmo:42044:1,2012-04-02T16:30:00Z,26.1914,-97.0507,0.0,6.046288118,161.6851699,7.58,'11111222,11111222,11111222' 
TABS,ioos:station:wmo:42044:1,2012-04-02T17:00:00Z,26.1914,-97.0507,0.0,6.950237406,155.6108931,8.58,'11111222,11111222,11111222' 
TABS,ioos:station:wmo:42044:1,2012-04-02T17:30:00Z,26.1914,-97.0507,0.0,8.15785511,157.7423746,9.92,'11111222,11111222,11111222' 
TABS,ioos:station:wmo:42044:1,2012-04-02T18:00:00Z,26.1914,-97.0507,0.0,7.483007417,154.4282921,9.0,'11111222,11111222,11111222' 
TABS,ioos:station:wmo:42044:1,2012-04-02T18:30:00Z,26.1914,-97.0507,0.0,7.535847663,152.9251846,9.63,'11111222,11111222,11111222' 
TABS,ioos:station:wmo:42044:1,2012-04-02T19:00:00Z,26.1914,-97.0507,0.0,7.864661468,157.5765388,9.77,'11111222,11111222,11111222' 
TABS,ioos:station:wmo:42044:1,2012-04-02T19:30:00Z,26.1914,-97.0507,0.0,7.543010009,150.8866523,9.41,'11111222,11111222,11111222' 
TABS,ioos:station:wmo:42044:1,2012-04-02T20:00:00Z,26.1914,-97.0507,0.0,7.786205751,148.6579263,9.08,'11111222,11111222,11111222' 
TABS,ioos:station:wmo:42044:1,2012-04-02T20:30:00Z,26.1914,-97.0507,0.0,7.573407423,142.0257863,9.64,'11111222,11111222,11111222' 
TABS,ioos:station:wmo:42044:1,2012-04-02T21:00:00Z,26.1914,-97.0507,0.0,7.13417129,141.7167721,9.36,'11111222,11111222,11111222' 
TABS,ioos:station:wmo:42044:1,2012-04-02T21:30:00Z,26.1914,-97.0507,0.0,7.892052965,144.4372973,9.92,'11111222,11111222,11111222' 
TABS,ioos:station:wmo:42044:1,2012-04-02T22:00:00Z,26.1914,-97.0507,0.0,7.422162758,145.8177825,8.82,'11111222,11111222,11111222' 
TABS,ioos:station:wmo:42044:1,2012-04-02T22:30:00Z,26.1914,-97.0507,0.0,6.754628043,145.2514905,8.25,'11111222,11111222,11111222' 
TABS,ioos:station:wmo:42044:1,2012-04-02T23:00:00Z,26.1914,-97.0507,0.0,7.552489656,147.9305702,9.45,'11111222,11111222,11111222' 
TABS,ioos:station:wmo:42044:1,2012-04-02T23:30:00Z,26.1914,-97.0507,0.0,7.667711523,144.341006,9.51,'11111222,11111222,11111222' 
TABS,ioos:station:wmo:42044:1,2012-04-03T00:00:00Z,26.1914,-97.0507,0.0,7.415713047,149.3545378,9.11,'11111222,11111222,11111222' 
TABS,ioos:station:wmo:42044:1,2012-04-03T00:30:00Z,26.1914,-97.0507,0.0,7.501053259,154.4942332,9.35,'11111222,11111222,11111222' 
TABS,ioos:station:wmo:42044:1,2012-04-03T01:00:00Z,26.1914,-97.0507,0.0,7.504352071,153.7425253,9.26,'11111222,11111222,11111222' 
TABS,ioos:station:wmo:42044:1,2012-04-03T01:30:00Z,26.1914,-97.0507,0.0,7.464703611,152.6456969,9.51,'11111222,11111222,11111222' 
TABS,ioos:station:wmo:42044:1,2012-04-03T02:00:00Z,26.1914,-97.0507,0.0,6.899637672,159.2012307,8.62,'11111222,11111222,11111222' 
TABS,ioos:station:wmo:42044:1,2012-04-03T02:30:00Z,26.1914,-97.0507,0.0,7.055558093,155.106022,8.76,'11111222,11111222,11111222' 
TABS,ioos:station:wmo:42044:1,2012-04-03T03:00:00Z,26.1914,-97.0507,0.0,7.365358104,156.2194422,9.28,'11111222,11111222,11111222' 
TABS,ioos:station:wmo:42044:1,2012-04-03T03:30:00Z,26.1914,-97.0507,0.0,7.475413032,154.9092903,9.15,'11111222,11111222,11111222' 
TABS,ioos:station:wmo:42044:1,2012-04-03T04:00:00Z,26.1914,-97.0507,0.0,6.979749279,162.3181267,8.6,'11111222,11111222,11111222' 
TABS,ioos:station:wmo:42044:1,2012-04-03T04:30:00Z,26.1914,-97.0507,0.0,8.093676544,163.49086,9.38,'11111222,11111222,11111222' 
TABS,ioos:station:wmo:42044:1,2012-04-03T05:00:00Z,26.1914,-97.0507,0.0,7.573915764,159.8426467,9.18,'11111222,11111222,11111222' 
TABS,ioos:station:wmo:42044:1,2012-04-03T05:30:00Z,26.1914,-97.0507,0.0,6.623307331,153.1644135,8.34,'11111222,11111222,11111222' 
TABS,ioos:station:wmo:42044:1,2012-04-03T06:00:00Z,26.1914,-97.0507,0.0,7.459524114,149.9981702,9.65,'11111222,11111222,11111222' 
TABS,ioos:station:wmo:42044:1,2012-04-03T06:30:00Z,26.1914,-97.0507,0.0,7.011262369,151.6441735,8.61,'11111222,11111222,11111222' 
TABS,ioos:station:wmo:42044:1,2012-04-03T07:00:00Z,26.1914,-97.0507,0.0,7.191606218,150.5123281,9.12,'11111222,11111222,11111222' 
TABS,ioos:station:wmo:42044:1,2012-04-03T07:30:00Z,26.1914,-97.0507,0.0,7.268927018,155.7976798,9.29,'11111222,11111222,11111222' 
TABS,ioos:station:wmo:42044:1,2012-04-03T08:00:00Z,26.1914,-97.0507,0.0,6.253527005,155.9354474,8.21,'11111222,11111222,11111222' 
TABS,ioos:station:wmo:42044:1,2012-04-03T08:30:00Z,26.1914,-97.0507,0.0,5.685015391,154.4719295,7.58,'11111222,11111222,11111222' 
TABS,ioos:station:wmo:42044:1,2012-04-03T09:00:00Z,26.1914,-97.0507,0.0,5.565177446,154.9087394,6.79,'11111222,11111222,11111222' 
TABS,ioos:station:wmo:42044:1,2012-04-03T09:30:00Z,26.1914,-97.0507,0.0,5.457655174,149.8647526,6.68,'11111222,11111222,11111222' 
TABS,ioos:station:wmo:42044:1,2012-04-03T10:00:00Z,26.1914,-97.0507,0.0,6.763933767,139.1968781,9.07,'11111222,11111222,11111222' 
TABS,ioos:station:wmo:42044:1,2012-04-03T10:30:00Z,26.1914,-97.0507,0.0,6.962966322,142.1758343,8.56,'11111222,11111222,11111222' 
TABS,ioos:station:wmo:42044:1,2012-04-03T11:00:00Z,26.1914,-97.0507,0.0,6.892445139,140.6524067,8.94,'11111222,11111222,11111222' 
TABS,ioos:station:wmo:42044:1,2012-04-03T11:30:00Z,26.1914,-97.0507,0.0,7.465252842,140.9809012,9.72,'11111222,11111222,11111222' 
TABS,ioos:station:wmo:42044:1,2012-04-03T12:00:00Z,26.1914,-97.0507,0.0,7.598085285,141.7880137,9.73,'11111222,11111222,11111222' 
TABS,ioos:station:wmo:42044:1,2012-04-03T12:30:00Z,26.1914,-97.0507,0.0,8.20957977,146.4263614,10.61,'11111222,11111222,11111222' 
TABS,ioos:station:wmo:42044:1,2012-04-03T13:00:00Z,26.1914,-97.0507,0.0,8.401339179,144.1534268,11.05,'11111222,11111222,11111222' 
TABS,ioos:station:wmo:42044:1,2012-04-03T13:30:00Z,26.1914,-97.0507,0.0,9.160785992,143.8809541,11.5,'11111222,11111222,11111222' 
TABS,ioos:station:wmo:42044:1,2012-04-03T14:00:00Z,26.1914,-97.0507,0.0,8.664577312,145.961757,11.0,'11111222,11111222,11111222' 
TABS,ioos:station:wmo:42044:1,2012-04-03T14:30:00Z,26.1914,-97.0507,0.0,7.382039014,147.5588581,9.42,'11111222,11111222,11111222' 
TABS,ioos:station:wmo:42044:1,2012-04-03T15:00:00Z,26.1914,-97.0507,0.0,7.22222265,146.4642419,9.06,'11111222,11111222,11111222' 
TABS,ioos:station:wmo:42044:1,2012-04-03T15:30:00Z,26.1914,-97.0507,0.0,6.113018894,148.1041879,7.64,'11111222,11111222,11111222' 
TABS,ioos:station:wmo:42044:1,2012-04-03T16:00:00Z,26.1914,-97.0507,0.0,5.310291894,156.2349702,6.43,'11111222,11111222,11111222' 
TABS,ioos:station:wmo:42044:1,2012-04-03T16:30:00Z,26.1914,-97.0507,0.0,5.036983224,157.1003975,6.09,'11111222,11111222,11111222' 
TABS,ioos:station:wmo:42044:1,2012-04-03T17:00:00Z,26.1914,-97.0507,0.0,4.324534657,144.0313664,5.16,'11111222,11111222,11111222' 
TABS,ioos:station:wmo:42044:1,2012-04-03T17:30:00Z,26.1914,-97.0507,0.0,3.602846097,146.6630773,4.61,'11111222,11111222,11111222' 
TABS,ioos:station:wmo:42044:1,2012-04-03T18:00:00Z,26.1914,-97.0507,0.0,2.669925093,170.0792728,3.3,'11111222,11111222,11111222' 
TABS,ioos:station:wmo:42044:1,2012-04-03T18:30:00Z,26.1914,-97.0507,0.0,2.359682182,156.2596614,2.88,'11111222,11111222,11111222' 
TABS,ioos:station:wmo:42044:1,2012-04-03T19:00:00Z,26.1914,-97.0507,0.0,2.379516758,165.1463805,3.06,'11111222,11111222,11111222' 
TABS,ioos:station:wmo:42044:1,2012-04-03T19:30:00Z,26.1914,-97.0507,0.0,1.476787053,190.9296729,2.34,'11111222,11111222,11111222' 
TABS,ioos:station:wmo:42044:1,2012-04-03T20:00:00Z,26.1914,-97.0507,0.0,2.597883754,130.0035667,3.63,'11111222,11111222,11111222' 
TABS,ioos:station:wmo:42044:1,2012-04-03T20:30:00Z,26.1914,-97.0507,0.0,4.001062359,109.5675043,5.01,'11111222,11111222,11111222' 
TABS,ioos:station:wmo:42044:1,2012-04-03T21:00:00Z,26.1914,-97.0507,0.0,5.73288758,119.6956475,6.77,'11111222,11111222,11111222' 
TABS,ioos:station:wmo:42044:1,2012-04-03T21:30:00Z,26.1914,-97.0507,0.0,5.867444077,116.5217395,7.29,'11111222,11111222,11111222' 
TABS,ioos:station:wmo:42044:1,2012-04-03T22:00:00Z,26.1914,-97.0507,0.0,5.500327263,111.9952144,6.95,'11111222,11111222,11111222' 
TABS,ioos:station:wmo:42044:1,2012-04-03T22:30:00Z,26.1914,-97.0507,0.0,5.745824571,111.1166347,7.31,'11111222,11111222,11111222' 
TABS,ioos:station:wmo:42044:1,2012-04-03T23:00:00Z,26.1914,-97.0507,0.0,6.374966667,112.0187441,7.74,'11111222,11111222,11111222' 
TABS,ioos:station:wmo:42044:1,2012-04-03T23:30:00Z,26.1914,-97.0507,0.0,5.934787275,114.2765309,7.35,'11111222,11111222,11111222' 
TABS,ioos:station:wmo:42044:1,2012-04-04T00:00:00Z,26.1914,-97.0507,0.0,5.587101216,113.077768,6.56,'11111222,11111222,11111222' 
TABS,ioos:station:wmo:42044:1,2012-04-04T00:30:00Z,26.1914,-97.0507,0.0,5.628756523,119.4800938,7.33,'11111222,11111222,11111222' 
TABS,ioos:station:wmo:42044:1,2012-04-04T01:00:00Z,26.1914,-97.0507,0.0,5.864716532,117.963653,7.18,'11111222,11111222,11111222' 
TABS,ioos:station:wmo:42044:1,2012-04-04T01:30:00Z,26.1914,-97.0507,0.0,5.131237667,120.964105,6.38,'11111222,11111222,11111222' 
TABS,ioos:station:wmo:42044:1,2012-04-04T02:00:00Z,26.1914,-97.0507,0.0,5.461446695,128.9059007,6.78,'11111222,11111222,11111222' 
TABS,ioos:station:wmo:42044:1,2012-04-04T02:30:00Z,26.1914,-97.0507,0.0,5.064247229,130.5157202,6.45,'11111222,11111222,11111222' 
TABS,ioos:station:wmo:42044:1,2012-04-04T03:00:00Z,26.1914,-97.0507,0.0,4.443354589,137.0066675,5.75,'11111222,11111222,11111222' 
TABS,ioos:station:wmo:42044:1,2012-04-04T03:30:00Z,26.1914,-97.0507,0.0,3.89011568,143.572259,5.09,'11111222,11111222,11111222' 
TABS,ioos:station:wmo:42044:1,2012-04-04T04:00:00Z,26.1914,-97.0507,0.0,4.147794595,147.8045518,5.56,'11111222,11111222,11111222' 
TABS,ioos:station:wmo:42044:1,2012-04-04T04:30:00Z,26.1914,-97.0507,0.0,3.111173412,148.4048469,4.03,'11111222,11111222,11111222' 
TABS,ioos:station:wmo:42044:1,2012-04-04T05:00:00Z,26.1914,-97.0507,0.0,2.083962572,148.1406181,2.7,'11111222,11111222,11111222' 
TABS,ioos:station:wmo:42044:1,2012-04-04T05:30:00Z,26.1914,-97.0507,0.0,2.050609665,128.2674101,3.01,'11111222,11111222,11111222' 
TABS,ioos:station:wmo:42044:1,2012-04-04T06:00:00Z,26.1914,-97.0507,0.0,3.382898166,140.7585624,4.53,'11111222,11111222,11111222' 
TABS,ioos:station:wmo:42044:1,2012-04-04T06:30:00Z,26.1914,-97.0507,0.0,2.458393785,127.8957568,3.26,'11111222,11111222,11111222' 
TABS,ioos:station:wmo:42044:1,2012-04-04T07:00:00Z,26.1914,-97.0507,0.0,3.110787682,125.5808375,3.9,'11111222,11111222,11111222' 
TABS,ioos:station:wmo:42044:1,2012-04-04T07:30:00Z,26.1914,-97.0507,0.0,2.979563726,130.372189,3.78,'11111222,11111222,11111222' 
TABS,ioos:station:wmo:42044:1,2012-04-04T08:00:00Z,26.1914,-97.0507,0.0,3.571918252,131.1409806,4.3,'11111222,11111222,11111222' 
TABS,ioos:station:wmo:42044:1,2012-04-04T08:30:00Z,26.1914,-97.0507,0.0,2.759438349,121.2133698,3.79,'11111222,11111222,11111222' 
TABS,ioos:station:wmo:42044:1,2012-04-04T09:00:00Z,26.1914,-97.0507,0.0,1.991230775,118.4959929,2.63,'11111222,11111222,11111222' 
TABS,ioos:station:wmo:42044:1,2012-04-04T09:30:00Z,26.1914,-97.0507,0.0,1.999049774,130.9435873,2.57,'11111222,11111222,11111222' 
TABS,ioos:station:wmo:42044:1,2012-04-04T10:00:00Z,26.1914,-97.0507,0.0,0.260192237,87.79698607,0.82,'11111222,11111222,11111222' 
TABS,ioos:station:wmo:42044:1,2012-04-04T10:30:00Z,26.1914,-97.0507,0.0,2.476852842,137.2909204,3.24,'11111222,11111222,11111222' 
TABS,ioos:station:wmo:42044:1,2012-04-04T11:00:00Z,26.1914,-97.0507,0.0,1.969390769,140.9770041,2.98,'11111222,11111222,11111222' 
TABS,ioos:station:wmo:42044:1,2012-04-04T11:30:00Z,26.1914,-97.0507,0.0,2.959087697,137.739645,3.59,'11111222,11111222,11111222' 
TABS,ioos:station:wmo:42044:1,2012-04-04T12:00:00Z,26.1914,-97.0507,0.0,3.178332896,143.9596676,4.17,'11111222,11111222,11111222' 
TABS,ioos:station:wmo:42044:1,2012-04-04T12:30:00Z,26.1914,-97.0507,0.0,2.325510697,139.185222,3.13,'11111222,11111222,11111222' 
TABS,ioos:station:wmo:42044:1,2012-04-04T13:00:00Z,26.1914,-97.0507,0.0,1.396030086,138.7757727,2.28,'11111222,11111222,11111222' 
TABS,ioos:station:wmo:42044:1,2012-04-04T13:30:00Z,26.1914,-97.0507,0.0,1.351924554,158.7497546,2.24,'11111222,11111222,11111222' 
TABS,ioos:station:wmo:42044:1,2012-04-04T14:00:00Z,26.1914,-97.0507,0.0,1.1225863,115.8806341,1.96,'11111222,11111222,11111222' 
TABS,ioos:station:wmo:42044:1,2012-04-04T14:30:00Z,26.1914,-97.0507,0.0,1.220163923,90.93960967,1.95,'11111222,11111222,11111222' 
TABS,ioos:station:wmo:42044:1,2012-04-04T15:00:00Z,26.1914,-97.0507,0.0,1.821345656,92.20301393,2.28,'11111222,11111222,11111222' 
TABS,ioos:station:wmo:42044:1,2012-04-04T15:30:00Z,26.1914,-97.0507,0.0,1.357239846,84.07897221,1.87,'11111222,11111222,11111222' 
TABS,ioos:station:wmo:42044:1,2012-04-04T16:00:00Z,26.1914,-97.0507,0.0,1.313202193,73.63469918,1.91,'11111222,11111222,11111222' 
TABS,ioos:station:wmo:42044:1,2012-04-04T16:30:00Z,26.1914,-97.0507,0.0,2.207849633,107.1221894,2.86,'11111222,11111222,11111222' 
TABS,ioos:station:wmo:42044:1,2012-04-04T17:00:00Z,26.1914,-97.0507,0.0,2.572877766,99.16983846,3.2,'11111222,11111222,11111222' 
TABS,ioos:station:wmo:42044:1,2012-04-04T17:30:00Z,26.1914,-97.0507,0.0,2.535843055,100.9115238,3.3,'11111222,11111222,11111222' 
TABS,ioos:station:wmo:42044:1,2012-04-04T18:00:00Z,26.1914,-97.0507,0.0,2.701295985,98.73043674,3.88,'11111222,11111222,11111222' 
TABS,ioos:station:wmo:42044:1,2012-04-04T18:30:00Z,26.1914,-97.0507,0.0,2.743574311,92.92539203,3.65,'11111222,11111222,11111222' 